Theta_e
320 323 325 326 327 327 327 327 328 328 328 329 329 329 330 330 330 329 329 329 330 329 328 328 327 327 327 326 326 326 324 323 322 320 319 319 318 318 317 316 314 312 310 307 305 303 301 297 295 293 292 291 290 290 290 289 289 289 289 289 289 289 289 290 291 291 290 290 290 289 288 287 286 286 286 286 285 285 284 284 284 283 283 283 283
319 321 323 325 326 327 327 327 327 328 328 328 328 329 329 330 330 329 330 330 329 329 329 328 326 326 326 325 325 325 323 323 321 320 319 318 317 317 316 314 311 308 306 304 302 300 298 295 293 292 291 290 290 290 289 289 289 289 288 288 288 288 287 288 289 289 289 289 288 288 287 286 286 286 286 286 285 285 284 284 284 283 283 283 283
317 320 322 324 325 326 326 327 327 327 328 328 328 329 329 329 330 329 329 329 329 329 328 327 326 325 325 325 324 324 322 320 320 320 319 318 317 316 314 311 309 306 303 301 299 297 295 293 292 291 290 290 289 289 289 288 288 288 288 288 288 288 287 287 287 287 287 287 287 287 286 286 286 285 285 286 285 284 284 283 283 284 283 283 283
314 317 320 322 323 325 325 326 326 326 327 327 328 328 328 329 329 329 329 328 328 328 328 327 326 325 324 323 323 322 321 319 318 318 318 318 318 316 313 310 307 305 302 299 297 294 293 292 291 291 290 289 289 288 288 288 288 288 287 287 287 287 287 286 286 286 286 286 286 286 286 286 286 285 285 285 285 284 283 283 283 283 283 283 283
312 314 317 319 320 322 323 324 324 325 325 326 327 327 328 328 328 328 328 328 327 327 327 326 325 324 323 322 322 321 320 319 318 317 317 317 318 316 312 309 306 303 300 297 294 293 292 292 291 291 290 289 289 288 288 288 288 287 287 287 287 287 286 286 286 286 285 285 286 286 285 285 286 285 285 285 284 283 283 283 283 283 283 283 283
313 313 314 316 317 318 319 320 321 321 322 323 324 325 326 327 328 328 327 327 327 326 325 325 324 322 321 321 321 321 320 318 318 317 317 316 316 315 312 308 305 301 297 294 293 292 292 292 291 290 290 289 289 288 288 287 287 287 287 287 287 286 286 286 286 285 285 285 285 285 285 285 285 285 285 284 283 283 283 283 284 283 283 283 283
312 312 312 313 314 315 316 317 318 319 320 321 322 323 324 325 326 326 327 327 326 325 324 324 322 321 320 321 321 320 319 318 317 317 317 315 315 314 310 306 302 297 294 292 292 291 291 291 291 290 289 289 289 288 288 287 287 287 287 287 286 286 286 286 285 285 285 285 285 285 285 285 285 284 284 283 283 282 282 282 283 283 283 283 282
309 310 310 311 312 313 314 315 317 319 320 322 322 322 323 324 324 325 325 325 326 325 324 323 321 319 319 319 320 320 319 317 317 317 317 315 314 311 308 304 299 294 292 291 291 290 290 290 290 289 289 289 289 288 288 288 287 287 286 286 286 286 286 286 285 285 285 285 285 285 285 284 284 284 283 283 282 282 281 280 281 281 282 282 282
306 307 307 308 309 310 312 314 316 318 319 320 320 321 322 323 323 323 323 323 324 324 323 322 319 317 316 316 317 318 319 319 318 318 317 316 312 309 306 301 295 292 291 290 289 289 289 289 289 289 288 288 288 288 287 287 287 287 287 286 286 286 286 285 285 285 285 285 284 284 284 283 283 283 282 282 281 281 281 280 280 280 280 281 282
305 304 304 305 306 307 309 312 314 316 317 318 318 319 320 320 321 321 321 320 321 321 320 318 317 316 316 316 316 316 318 319 319 318 318 316 312 307 302 297 293 291 291 290 289 289 288 288 288 288 288 288 288 287 287 287 287 287 287 286 286 286 286 286 285 285 284 284 284 284 283 282 282 282 282 281 281 281 280 279 279 280 279 280 281
305 305 304 304 305 305 307 309 310 312 314 315 316 317 317 318 318 318 318 318 318 318 317 316 315 315 315 316 316 315 315 316 317 317 316 314 311 307 300 294 292 291 290 290 289 288 288 288 288 288 288 287 287 287 287 286 286 286 286 286 286 286 286 285 285 285 284 283 283 283 282 282 282 282 281 281 281 280 279 279 278 278 278 278 278
306 305 304 304 305 306 306 307 308 309 311 313 314 315 315 315 315 315 315 316 315 315 314 314 313 313 313 313 312 311 311 312 314 315 314 311 309 306 299 294 292 291 290 290 289 289 288 288 287 287 287 287 287 287 286 286 286 286 286 286 285 285 285 285 285 284 284 283 283 282 282 281 281 281 281 281 280 279 279 278 277 277 277 276 276
306 305 305 305 305 306 307 308 308 309 310 311 312 313 313 313 313 313 313 313 312 312 311 311 311 311 311 310 309 309 311 313 313 313 312 309 306 301 296 293 292 290 289 289 289 289 289 288 287 287 287 287 286 286 286 286 286 285 285 285 285 285 285 285 285 284 283 283 283 282 282 281 281 281 281 280 279 279 278 278 277 276 276 276 276
306 306 305 305 306 306 307 308 308 309 309 310 310 311 311 311 311 311 310 310 309 309 309 309 308 308 308 309 309 309 311 313 312 311 310 307 302 296 293 292 291 290 289 289 289 289 289 288 288 287 287 287 286 286 286 286 286 285 285 285 285 285 285 285 284 284 283 283 283 282 282 281 281 281 280 280 279 278 278 277 276 275 275 276 277
305 306 306 305 306 307 307 307 307 307 308 308 308 309 309 309 309 309 309 308 308 308 308 308 308 307 307 307 307 307 308 310 309 307 305 302 296 292 291 291 290 289 289 289 289 289 289 288 288 288 287 287 286 286 286 286 286 285 285 285 285 284 284 284 284 283 283 283 282 282 282 281 281 280 279 279 279 278 278 277 276 275 275 276 278
305 305 306 306 306 307 307 306 305 305 306 306 306 306 306 307 308 308 307 307 306 306 307 307 307 307 306 305 305 306 306 307 306 302 299 296 292 290 290 290 289 289 288 288 288 288 288 288 288 287 287 287 287 286 286 286 285 285 285 285 284 284 284 284 283 283 282 282 282 282 281 281 280 280 279 279 278 278 278 277 276 276 275 275 276
304 305 305 306 306 306 306 306 304 304 304 304 304 304 304 305 306 306 306 305 305 305 305 305 305 305 304 304 305 306 305 304 302 299 295 292 290 289 289 289 288 288 288 288 288 287 287 287 287 287 287 287 286 286 285 285 285 285 285 284 284 284 283 283 283 282 282 282 282 281 281 280 280 280 279 279 278 277 277 277 276 276 275 274 274
303 304 305 305 306 306 306 305 304 304 303 303 303 303 303 303 303 303 303 303 303 303 303 302 302 302 302 302 303 306 306 303 299 295 293 291 290 289 289 288 288 288 287 287 287 287 287 287 287 287 287 286 286 285 285 285 285 285 285 284 284 284 283 282 282 282 282 282 282 281 281 280 280 279 279 279 279 278 277 276 276 275 275 273 272
302 303 304 305 305 306 306 305 304 304 304 303 303 303 302 302 302 302 301 302 302 301 301 300 299 299 300 300 301 303 304 300 294 291 291 290 289 289 289 288 288 287 286 286 285 286 286 286 286 286 286 286 285 285 285 285 285 285 284 284 284 284 283 283 282 282 282 281 281 280 280 280 279 279 279 279 279 278 277 276 276 275 274 273 272
301 302 303 304 305 305 306 305 304 304 304 304 303 302 301 301 300 300 299 299 300 300 299 298 298 297 297 298 298 299 299 298 293 290 289 289 288 289 289 288 287 287 286 286 285 285 285 286 286 286 285 285 285 285 285 285 284 284 284 284 284 284 283 283 282 282 281 281 280 280 280 279 279 279 279 279 279 278 277 276 276 275 274 272 271
301 302 302 303 303 304 305 304 304 303 303 302 301 300 299 299 298 298 297 297 297 297 296 296 296 295 295 295 295 295 296 296 293 289 288 288 287 288 288 288 288 287 286 286 286 286 285 285 285 285 285 285 285 284 284 284 284 284 284 284 284 283 283 283 282 281 281 280 280 279 279 279 278 279 279 279 278 278 277 276 276 275 273 272 271
300 301 302 302 302 303 303 303 302 302 301 300 300 298 297 297 297 297 296 296 295 295 294 294 294 293 293 292 293 292 292 293 291 288 287 287 287 287 287 287 287 287 287 286 285 286 286 286 286 285 285 285 285 284 284 284 284 284 284 283 283 283 283 282 282 281 281 280 280 279 279 278 278 279 279 278 278 277 277 276 276 275 274 273 272
299 300 301 301 301 302 302 302 302 301 301 300 300 299 298 298 297 297 297 296 295 294 293 293 292 292 291 291 291 291 290 290 290 288 287 286 286 286 286 286 287 287 287 287 286 286 286 286 286 285 285 285 284 284 283 283 284 284 283 282 282 282 282 282 281 281 280 280 279 279 279 278 278 278 278 278 277 277 277 276 276 275 275 274 273
299 299 300 300 301 301 301 301 301 301 301 301 300 300 300 299 298 298 297 297 295 294 293 292 292 291 291 290 289 289 288 288 288 287 286 286 285 285 285 286 286 286 286 287 287 286 286 286 286 285 285 285 284 283 283 283 283 283 283 282 281 281 282 281 281 280 280 279 279 279 279 278 278 278 278 277 277 276 276 276 276 276 275 275 274
298 299 299 299 299 299 299 299 299 299 299 299 299 299 298 298 297 296 295 295 294 293 292 291 291 290 290 289 288 287 287 287 287 286 286 285 285 285 285 285 285 285 285 285 286 286 286 286 286 285 285 284 283 283 283 283 283 282 282 281 280 281 281 281 280 280 279 279 279 279 278 278 278 278 277 277 277 276 276 276 276 276 275 275 275
298 297 298 298 298 298 298 297 296 296 296 296 297 297 297 296 295 294 293 292 292 291 290 290 289 289 288 288 287 287 287 286 286 286 286 285 284 284 284 284 284 285 285 285 285 285 285 285 285 284 284 283 283 283 283 282 282 281 281 280 280 281 281 280 280 280 279 279 279 279 278 278 277 277 277 277 276 276 275 276 276 276 274 274 274
297 296 296 296 296 296 296 295 294 294 294 294 294 294 295 294 293 292 291 290 289 289 289 288 288 288 287 287 287 286 286 286 286 286 285 285 284 284 284 284 284 284 284 284 284 284 284 284 284 283 282 282 282 282 282 282 281 280 280 279 280 280 280 280 280 279 279 279 278 278 277 277 277 277 277 276 276 276 275 275 275 274 273 272 272
296 295 295 295 294 294 294 294 293 292 292 292 292 293 293 293 292 292 292 291 290 289 289 288 288 288 288 287 286 285 285 286 286 286 285 285 284 284 284 283 283 283 283 283 283 283 283 282 282 281 281 282 282 281 281 281 280 280 279 279 279 279 279 279 279 278 278 277 277 277 276 276 276 276 276 276 276 275 275 274 273 272 272 271 270
295 294 293 293 293 292 292 292 292 292 291 291 291 292 292 292 292 293 293 293 293 292 291 291 291 290 289 288 287 286 285 286 286 286 286 285 284 284 284 283 283 283 283 283 282 282 282 281 281 280 281 281 280 280 280 279 279 279 279 278 278 278 278 278 278 278 277 277 276 276 276 276 275 275 275 275 275 275 274 273 272 271 271 270 270
292 292 291 291 291 290 290 290 290 291 291 290 289 289 290 290 290 290 291 291 291 291 291 291 291 290 289 288 287 287 287 287 286 285 285 285 284 284 283 283 283 282 282 282 282 281 281 281 280 280 280 280 280 279 279 278 278 278 278 277 277 277 277 278 278 277 277 276 276 276 275 275 275 275 275 275 275 274 273 272 272 271 270 270 269
291 289 289 289 289 289 289 289 288 289 289 288 288 287 287 287 287 287 288 288 288 288 288 288 288 288 287 287 287 286 286 286 285 285 285 285 284 284 283 283 283 282 282 281 281 281 281 280 280 280 280 279 279 279 278 277 277 277 277 276 276 276 277 278 278 277 276 275 275 275 275 274 274 274 274 274 274 274 273 272 271 271 270 269 269
291 289 288 289 288 288 288 288 287 287 287 287 287 286 286 286 286 286 286 285 286 286 286 285 285 285 285 285 285 285 285 285 285 284 284 284 284 284 284 283 283 282 282 281 281 280 280 280 279 279 279 279 279 278 278 277 276 276 276 276 276 276 276 277 277 277 275 275 275 275 275 274 274 274 274 273 273 273 272 272 271 271 270 269 269
292 290 288 288 288 287 288 287 287 287 286 286 286 286 285 285 285 285 285 285 284 284 284 284 284 284 284 284 284 284 284 284 284 284 284 284 284 284 283 283 283 282 282 281 280 280 279 279 279 279 278 278 278 278 277 277 277 276 276 277 277 276 276 276 275 275 274 274 274 274 274 274 274 273 273 273 272 272 272 271 271 270 269 269 269
292 291 290 289 288 287 287 287 287 286 286 286 286 285 285 285 284 284 284 284 284 284 284 284 283 283 283 283 283 283 283 283 283 283 283 283 283 283 283 283 283 282 282 281 281 280 279 279 278 279 279 279 279 278 278 277 277 277 277 277 276 276 275 274 274 273 274 274 274 274 274 273 273 273 273 272 272 271 271 271 270 269 269 269 269
291 290 289 289 288 287 286 286 286 286 285 285 285 285 284 284 284 284 284 284 284 284 284 284 284 283 283 282 282 282 282 282 282 282 282 282 282 282 283 283 283 283 283 282 281 280 280 279 279 279 279 279 278 278 278 279 279 279 278 277 276 275 274 274 274 274 273 273 273 273 273 273 273 273 272 272 271 271 271 271 270 269 269 268 268
290 288 287 287 287 287 286 285 285 285 285 285 284 284 284 284 283 283 283 283 283 283 283 283 283 283 282 282 281 281 281 281 281 281 281 282 281 282 282 283 283 283 283 282 282 281 280 280 279 279 279 279 279 279 279 280 279 279 278 277 276 275 274 274 274 274 273 273 273 273 273 272 272 272 272 271 271 271 271 271 270 269 268 268 268
289 288 287 286 286 286 285 285 285 284 284 284 284 283 283 283 283 283 283 283 283 283 283 282 282 282 282 282 281 281 281 280 281 281 281 281 281 281 282 282 282 282 282 282 282 281 281 280 280 280 280 280 280 279 279 279 279 278 277 276 276 275 274 274 274 274 274 274 273 273 272 272 272 272 272 271 271 271 271 270 270 269 268 268 267
288 288 286 286 285 285 285 284 284 283 283 283 283 282 282 282 282 282 282 282 282 282 282 282 282 282 282 282 282 281 280 280 280 280 280 280 281 281 281 282 282 282 282 282 282 281 281 281 281 280 280 280 279 279 279 278 278 277 276 275 275 274 274 273 273 273 273 273 272 272 272 272 272 272 271 271 271 270 270 270 269 269 268 268 267
286 286 285 285 284 284 284 283 283 282 282 282 281 281 281 281 281 281 281 281 281 281 281 281 281 281 281 281 281 281 280 280 280 280 280 280 281 281 281 281 281 281 281 281 281 281 281 280 280 280 280 279 279 279 278 278 277 276 275 275 274 273 273 272 272 272 272 272 272 272 272 272 272 272 271 271 270 270 270 269 269 268 268 268 267
284 283 283 283 282 282 283 282 282 281 281 281 280 280 280 280 280 280 280 280 280 280 280 281 281 281 281 281 280 280 280 280 280 280 280 280 280 281 281 281 281 281 281 281 281 280 280 280 280 280 280 279 279 279 278 277 276 276 275 274 274 273 273 272 272 272 273 273 272 272 272 272 272 271 271 270 270 270 270 269 269 268 267 267 267
283 282 282 282 282 281 281 281 280 280 280 280 279 279 279 279 279 279 279 279 279 279 280 280 280 280 280 280 280 280 280 280 280 280 280 280 280 281 281 281 281 281 281 281 280 280 280 280 280 280 279 279 279 279 278 277 276 275 275 274 274 273 272 272 272 272 273 272 272 272 272 271 271 271 271 270 270 269 269 268 268 268 267 267 266
282 281 281 281 280 280 280 279 279 279 279 278 278 278 278 278 278 278 278 278 278 278 279 279 279 279 279 279 279 279 279 279 279 279 280 280 280 281 281 281 281 281 281 281 281 280 280 280 280 279 279 279 279 278 278 277 276 276 275 274 274 273 272 272 272 272 272 272 271 271 271 271 271 271 270 270 269 268 268 267 267 267 266 266 266
281 281 280 279 279 279 279 278 278 278 278 278 278 277 277 277 277 277 277 277 277 277 277 277 277 278 277 277 277 278 278 278 278 279 279 279 279 280 280 280 280 281 280 280 281 280 280 280 280 279 279 279 279 278 278 277 277 276 275 274 274 273 272 271 271 271 271 271 271 271 271 271 271 270 270 269 268 268 267 267 266 266 266 266 266
280 280 279 279 278 278 278 278 278 278 278 277 277 277 277 277 277 276 276 276 276 276 276 276 276 276 276 276 276 276 276 277 277 277 278 278 278 278 279 279 279 279 279 279 279 279 279 279 279 279 279 278 278 278 277 277 276 276 275 274 274 273 272 271 271 271 271 271 271 271 270 270 270 269 269 268 268 267 267 266 266 266 265 265 265
279 279 278 278 277 277 277 277 277 277 277 277 277 277 277 277 276 276 276 276 275 275 275 275 274 274 274 275 275 275 275 275 275 275 276 276 276 276 277 277 277 277 277 277 277 277 278 278 278 278 278 277 277 277 276 276 275 275 274 274 274 273 273 272 272 271 271 271 271 271 270 270 270 269 269 268 267 267 266 266 265 265 265 265 265
277 277 277 277 277 276 276 276 276 276 276 276 276 275 275 275 275 275 275 274 274 274 273 273 273 273 273 273 273 273 273 274 274 274 274 274 274 274 274 274 275 275 275 275 275 275 275 275 276 276 276 276 276 276 275 275 275 274 274 273 273 273 273 272 271 271 270 271 271 271 271 270 270 269 269 268 267 266 266 265 265 265 264 264 265
277 277 277 276 276 276 275 275 275 275 275 275 274 274 274 273 273 273 273 273 273 273 272 272 272 272 272 272 272 272 272 272 272 272 272 272 272 273 272 272 272 272 272 272 273 273 273 273 273 274 274 274 274 274 274 274 274 273 273 273 272 272 272 271 270 270 270 270 271 271 271 270 270 269 268 267 266 266 265 265 264 264 264 264 264
277 276 276 275 275 274 274 274 274 274 273 273 273 273 273 272 272 272 272 272 271 271 271 271 271 271 271 271 271 271 271 271 271 271 271 271 271 271 271 271 271 271 271 271 271 271 271 271 271 272 272 272 272 272 272 272 272 272 272 272 271 271 271 270 269 269 269 270 270 270 270 270 269 269 268 267 266 265 265 265 264 264 263 263 263
275 275 275 274 274 274 273 273 273 272 272 271 271 271 271 271 271 271 270 270 270 270 270 270 270 270 270 270 270 270 270 270 270 270 270 270 270 270 270 270 270 269 269 269 269 270 270 270 270 270 270 270 270 270 270 270 270 270 270 270 270 270 270 269 269 268 268 269 269 270 269 269 268 268 267 266 265 265 265 264 264 263 263 262 262
275 275 274 274 274 273 273 272 272 271 271 271 271 270 270 270 270 270 270 269 269 269 269 269 269 269 269 269 269 269 269 269 269 269 269 269 269 269 269 269 268 268 268 268 268 268 268 268 268 268 268 268 268 268 269 269 269 269 269 269 269 269 269 268 268 267 268 268 269 269 269 268 267 266 266 265 265 264 264 264 263 263 263 262 262
274 274 274 273 273 272 272 271 271 271 270 270 270 270 270 269 269 269 269 269 269 269 269 268 268 268 268 268 268 268 268 268 268 268 267 267 267 267 267 267 267 267 267 267 267 267 267 267 267 267 267 267 267 267 267 268 268 268 268 268 268 268 268 267 267 267 267 268 268 269 268 267 266 265 265 264 264 264 263 263 263 263 262 262 262
Wind_Speed
27 28 29 29 31 31 32 32 32 32 32 31 31 31 31 31 31 31 31 32 33 33 32 33 37 39 39 38 38 37 36 35 34 34 34 34 32 29 26 24 25 26 27 28 29 29 30 29 26 25 23 22 21 19 18 17 16 15 14 14 13 12 11 12 10 7 6 6 6 6 6 7 6 7 9 9 11 15 15 13 15 17 18 20 22
22 24 25 26 28 29 30 29 29 30 31 31 31 31 30 30 30 30 30 30 32 33 32 33 36 40 40 39 39 38 38 37 36 35 35 33 30 27 25 25 26 27 29 30 30 31 31 29 27 25 23 22 20 19 18 17 16 15 14 13 12 12 11 11 11 9 7 6 5 4 4 5 7 8 9 9 11 16 15 13 15 18 18 20 22
19 20 22 23 24 25 25 26 27 28 29 30 30 30 29 30 31 32 32 31 31 32 33 33 36 40 41 41 40 39 37 37 37 37 37 35 30 27 25 26 28 29 31 32 32 33 32 30 27 26 24 22 20 19 18 17 16 15 14 13 11 10 10 9 9 9 7 5 3 3 3 5 7 8 9 9 12 16 15 14 16 18 19 22 23
20 19 19 20 21 21 22 24 25 26 28 29 29 28 27 28 31 32 33 32 31 32 32 33 36 39 41 40 40 39 38 38 37 37 37 34 29 25 25 27 29 31 33 34 34 34 33 31 28 26 24 23 21 19 18 18 16 15 14 13 11 10 9 8 8 8 7 4 3 3 4 6 7 8 8 10 14 16 14 15 18 18 19 22 24
20 21 20 20 21 22 23 24 25 27 28 29 29 28 27 26 29 32 33 33 32 32 33 34 36 39 41 41 40 40 39 39 39 37 34 30 26 24 25 27 30 31 33 35 35 34 33 31 28 26 24 23 22 20 19 18 16 15 14 13 11 10 9 8 7 6 5 3 3 3 5 6 7 8 8 12 16 16 15 18 19 19 21 24 24
17 19 21 21 22 23 24 25 26 27 29 30 30 30 29 26 27 30 33 34 33 33 34 34 37 40 41 41 40 40 40 40 39 36 33 29 26 24 25 27 30 32 34 35 34 33 31 29 26 25 24 23 22 21 20 18 17 16 14 13 12 11 9 8 6 5 4 2 2 4 5 6 7 7 8 13 16 15 16 21 21 19 22 26 24
14 15 17 18 20 21 21 22 23 24 25 27 28 29 30 30 29 30 32 33 34 34 34 35 37 40 41 41 40 40 40 39 37 35 32 29 27 25 26 28 30 32 34 34 33 31 29 27 25 24 23 22 21 20 20 19 17 15 14 12 12 11 9 8 6 5 3 1 2 4 6 6 6 6 9 13 14 13 16 23 24 23 24 27 24
14 14 14 15 17 18 18 19 21 22 23 24 24 25 27 28 29 30 31 33 33 33 34 35 37 39 40 40 39 39 39 38 36 34 31 28 27 27 28 30 32 33 33 32 31 29 27 25 24 23 22 20 19 18 18 18 17 16 14 13 13 11 10 9 7 6 4 3 3 5 6 7 6 7 10 13 14 14 16 20 24 25 26 27 22
14 14 15 16 17 17 18 18 20 21 22 24 25 26 27 28 29 30 30 30 31 33 34 36 37 38 37 37 38 39 39 37 36 35 33 30 29 28 29 32 35 35 33 31 30 28 27 25 24 23 22 20 18 17 17 16 16 15 15 15 14 12 10 9 8 6 5 5 5 5 6 7 6 7 11 12 13 15 17 19 21 23 26 27 21
12 13 14 15 16 16 17 18 18 19 20 21 22 24 25 27 29 30 30 30 31 32 33 35 36 38 38 37 37 39 39 39 38 38 36 32 30 30 32 34 36 36 35 33 30 28 27 26 24 23 21 20 19 18 17 17 15 14 14 14 13 11 10 9 8 7 7 7 7 6 7 6 5 6 9 11 12 15 17 19 21 23 26 26 21
13 13 13 13 13 14 16 17 18 18 18 19 19 20 22 23 25 26 28 29 29 30 32 33 35 37 38 38 39 40 40 40 40 38 35 32 31 32 35 37 37 36 35 34 32 30 28 26 25 23 22 20 20 18 17 17 16 14 13 12 11 10 9 9 8 8 8 8 8 7 7 6 5 6 9 11 13 15 16 16 18 20 20 19 17
14 13 11 12 12 13 14 15 17 17 18 18 18 19 20 21 23 24 26 27 28 29 30 32 34 36 36 37 38 38 38 38 37 35 33 31 31 34 37 38 38 37 36 34 33 31 29 27 25 24 22 21 20 20 19 17 16 15 14 12 11 9 9 8 8 8 8 9 8 7 6 5 5 7 9 11 14 15 15 15 15 15 15 15 17
16 13 12 12 13 13 14 15 16 17 17 18 18 19 20 21 22 23 24 25 26 27 29 30 32 33 34 35 35 34 35 35 35 33 31 30 32 35 38 39 38 37 36 34 32 31 30 28 26 25 24 23 21 20 20 18 17 16 14 13 12 10 10 8 8 8 8 8 7 6 5 5 6 8 10 12 14 15 15 15 13 12 15 17 20
17 15 14 13 13 14 15 16 17 17 17 18 18 19 19 20 21 21 23 24 24 26 27 28 29 30 31 33 33 33 35 35 33 32 31 31 34 37 39 38 37 36 35 33 31 30 29 28 27 27 26 24 22 21 20 19 18 16 15 15 13 11 10 9 9 9 8 8 7 5 5 6 8 9 11 13 14 14 14 14 13 14 16 18 21
19 17 15 15 15 15 15 16 16 17 17 18 18 18 19 19 20 21 21 22 24 25 26 27 28 29 30 31 32 32 33 32 31 31 31 32 35 37 38 37 36 35 33 32 30 29 28 27 27 27 26 24 23 22 21 19 18 17 16 15 13 12 11 10 10 10 9 8 8 6 6 8 9 10 12 14 14 13 12 12 14 15 16 18 20
20 19 17 16 16 16 16 16 16 16 16 17 18 18 19 19 20 21 21 22 23 24 25 26 28 29 30 31 31 30 29 29 29 30 31 34 36 37 36 36 35 34 32 31 29 28 28 27 26 25 24 23 23 22 20 19 18 17 17 15 13 12 12 11 10 10 9 8 8 7 7 7 8 10 12 12 12 13 13 13 14 13 14 18 19
21 20 19 17 17 16 16 15 15 15 15 16 17 17 18 19 19 20 21 22 23 24 25 26 27 29 30 30 30 30 28 28 29 31 33 36 37 37 36 34 33 32 31 30 29 28 27 26 25 24 23 23 23 21 20 19 17 17 17 15 14 13 12 12 11 10 10 9 9 8 8 8 8 10 11 10 10 11 12 13 13 11 13 14 12
21 20 19 18 16 16 15 15 14 14 14 15 16 16 17 17 18 19 20 21 22 23 23 24 25 27 28 29 29 29 28 28 31 33 35 37 38 37 35 33 32 31 31 30 29 28 27 25 25 24 23 24 22 21 20 19 17 17 17 16 16 15 14 14 12 12 12 11 10 9 8 8 8 9 10 10 10 10 11 12 11 11 12 10 9
20 20 19 17 16 15 15 15 14 14 14 15 15 16 16 16 17 17 18 19 20 21 21 22 22 23 25 26 27 27 27 29 32 34 35 37 38 37 36 34 33 32 31 30 28 27 26 26 25 24 24 23 22 21 21 20 18 18 18 17 17 16 14 14 13 13 12 11 10 9 8 8 9 8 9 9 10 10 10 10 10 10 11 10 10
17 17 17 16 16 15 15 15 15 15 15 15 15 15 15 16 16 16 17 18 18 19 19 20 21 21 23 24 24 25 26 29 32 34 36 38 38 38 37 37 35 34 32 30 29 28 28 27 27 26 24 23 22 21 21 20 19 19 19 19 18 15 14 14 13 13 12 11 10 9 9 9 9 8 9 9 9 9 8 9 10 11 11 13 11
15 16 16 16 16 15 15 15 15 15 15 14 14 14 14 15 15 15 16 16 16 17 18 19 19 20 21 22 23 25 26 29 32 35 36 37 37 37 37 37 36 34 33 31 31 30 30 29 28 27 25 23 22 22 22 21 20 20 19 18 16 14 14 14 13 13 12 11 11 10 10 10 9 9 9 9 8 8 8 9 10 12 13 14 13
16 16 17 17 16 15 15 15 14 14 14 14 13 13 13 14 14 15 15 15 15 16 17 18 18 18 19 20 22 24 25 27 31 34 35 36 36 36 35 34 34 33 32 32 31 31 31 31 30 28 26 25 24 23 23 22 21 20 19 17 16 16 16 14 14 14 13 12 12 11 10 10 10 9 9 9 8 9 9 9 11 12 13 14 14
17 17 17 17 17 16 15 15 15 15 15 14 14 14 14 14 14 15 15 15 16 16 17 18 18 18 18 19 21 23 24 26 30 33 35 36 36 34 32 32 31 31 31 31 31 31 31 30 29 28 27 25 25 25 24 22 20 20 18 16 17 18 17 15 15 15 14 14 14 12 11 11 10 9 9 9 9 10 10 10 11 12 12 13 13
18 18 18 17 16 16 15 15 16 16 17 17 17 17 17 17 16 17 18 18 19 19 19 20 20 20 20 20 22 23 25 26 29 32 34 35 35 33 31 30 30 30 29 29 29 30 30 29 29 28 27 26 26 25 23 21 21 20 17 16 18 19 18 16 16 15 15 16 15 13 12 11 10 10 10 10 10 11 10 10 11 11 11 11 11
18 18 17 17 16 15 15 15 16 17 17 18 19 20 20 20 20 20 20 21 21 21 21 21 22 22 22 22 23 23 24 26 27 30 32 33 33 32 31 30 29 28 28 28 28 28 27 27 27 27 26 26 25 24 22 21 21 20 17 17 20 21 19 17 16 16 17 18 16 14 13 12 11 11 10 10 11 11 11 11 10 10 10 11 11
18 17 17 16 15 15 15 15 15 16 16 17 18 19 20 20 20 20 20 21 20 20 20 21 21 21 21 21 22 23 24 26 27 29 30 31 31 31 30 29 28 27 27 27 25 24 24 25 25 26 26 26 25 24 23 21 21 20 18 20 23 23 20 18 18 19 20 19 17 15 14 13 12 11 11 11 11 11 11 11 10 9 9 10 11
18 17 17 16 15 15 15 16 15 15 16 16 16 17 17 18 18 19 19 19 19 18 19 20 20 20 20 20 21 23 24 25 27 28 29 30 30 30 30 29 27 27 26 25 24 23 23 23 23 24 25 25 24 23 23 23 22 21 21 23 26 24 21 20 20 20 20 19 17 16 15 14 13 12 11 11 11 11 10 10 10 9 9 9 11
17 17 17 16 16 16 15 16 16 15 15 16 16 16 16 17 18 19 19 20 20 19 20 21 22 23 22 21 21 22 23 25 28 30 31 31 31 30 30 29 29 28 27 26 24 22 22 21 21 22 24 24 23 23 24 25 25 25 25 26 27 25 22 21 20 21 20 19 18 17 17 16 14 12 11 11 11 10 9 9 9 9 8 8 10
17 17 16 16 16 16 15 15 15 15 15 15 14 14 15 16 17 18 19 19 19 20 21 23 24 25 24 23 23 23 25 28 31 31 30 31 31 31 30 30 30 29 28 27 25 23 22 22 23 24 25 25 25 25 26 27 27 27 28 28 28 26 24 23 24 24 23 21 20 19 18 17 16 13 12 11 11 10 9 9 8 9 8 7 9
16 16 15 14 15 15 14 14 14 14 14 14 13 12 12 13 15 16 16 17 18 19 19 21 22 22 23 24 24 25 26 28 27 26 27 27 28 28 28 28 28 28 27 26 25 24 24 25 27 28 28 28 28 29 29 29 29 29 30 30 30 28 27 26 26 25 24 23 22 20 19 18 17 14 12 12 11 10 10 10 8 8 8 7 9
17 15 14 14 14 14 13 13 12 12 12 13 12 11 10 11 12 13 13 14 15 17 18 19 19 19 20 22 22 23 23 23 22 21 23 25 25 26 27 26 27 27 28 27 27 27 28 29 29 29 30 30 30 30 30 29 30 30 30 30 30 30 29 29 28 27 26 24 23 21 20 19 18 15 13 12 11 11 11 10 9 9 8 8 10
18 17 14 14 14 13 13 13 12 11 11 12 11 10 9 9 10 11 11 12 12 13 15 17 17 17 18 19 20 20 21 22 21 20 20 22 23 25 26 26 26 26 26 27 28 30 30 30 29 29 30 30 30 30 29 29 29 29 29 30 31 32 32 31 30 28 27 26 24 22 21 20 18 16 14 13 13 12 11 10 9 9 8 9 10
17 17 16 15 15 14 13 14 13 12 12 12 12 11 10 10 10 10 10 11 12 12 13 15 16 16 16 17 18 18 19 20 21 20 19 19 20 22 24 24 24 24 25 28 30 30 30 29 28 28 29 30 30 28 28 28 28 28 29 31 33 34 33 31 29 27 26 25 23 22 22 20 18 16 15 14 14 13 12 11 10 9 10 11 11
14 15 15 15 16 15 13 14 14 13 12 12 12 12 11 10 9 9 9 10 11 12 14 15 16 17 17 17 17 17 17 18 19 20 20 18 18 20 21 21 21 23 26 29 30 29 28 28 27 27 28 29 28 28 28 29 29 29 30 31 32 32 31 30 28 27 26 25 24 23 22 21 19 18 17 16 15 14 13 12 11 10 11 12 11
13 13 13 13 14 14 12 12 13 12 12 12 11 11 11 10 9 8 8 8 9 11 12 13 14 16 17 17 17 16 16 17 17 19 20 19 18 18 19 20 21 23 25 27 29 29 28 28 28 28 28 28 28 28 29 30 30 30 31 31 30 30 29 28 28 28 27 26 25 24 23 22 21 19 18 16 16 16 15 14 13 12 12 12 12
15 15 14 13 14 13 12 12 12 11 11 11 10 10 10 10 9 8 7 7 7 7 9 9 10 11 13 14 16 15 15 16 17 17 19 20 20 20 22 24 25 25 26 27 28 29 29 28 28 29 30 30 30 31 31 32 32 31 30 30 30 30 30 29 29 28 27 26 25 25 24 24 22 20 19 18 18 17 16 15 14 13 13 13 12
16 17 16 15 14 13 13 12 11 11 10 10 10 10 9 9 9 9 8 7 6 6 6 7 7 8 9 11 12 14 15 16 16 16 17 18 19 22 25 26 25 25 26 28 28 28 30 32 32 32 33 32 32 32 32 32 31 30 30 30 30 31 32 31 30 29 27 27 26 26 26 24 22 21 20 20 19 18 17 16 15 13 13 12 12
16 17 17 15 14 14 14 13 12 11 11 10 10 10 9 9 8 8 8 7 6 6 7 7 8 8 9 10 10 11 12 13 13 14 15 16 19 23 26 26 26 27 28 30 30 30 32 33 33 33 33 32 32 31 31 31 30 29 28 28 29 30 30 30 28 28 27 27 27 27 25 24 23 22 22 21 20 19 18 17 16 15 14 13 13
16 16 16 15 14 13 13 13 12 12 11 10 10 9 9 9 8 8 7 7 6 6 6 7 8 9 9 10 10 10 11 13 14 16 17 19 21 23 25 26 27 28 29 30 30 30 31 31 31 31 31 31 31 31 30 29 29 28 27 27 27 29 30 29 29 29 29 29 29 27 26 26 25 24 23 22 21 20 19 18 17 16 16 15 15
18 17 16 15 14 13 12 12 12 11 10 10 9 9 8 7 6 6 6 5 5 5 5 6 7 8 8 9 10 10 12 14 16 18 19 20 22 23 25 26 27 28 28 29 28 28 29 29 29 29 30 31 31 30 30 29 28 27 27 27 28 30 31 32 32 32 32 31 30 29 28 28 26 24 23 23 22 21 19 19 18 17 17 16 15
18 18 17 16 15 14 13 13 12 11 11 10 9 8 7 6 5 5 4 4 4 4 4 5 6 6 7 8 9 10 13 14 16 17 18 19 21 23 24 25 26 26 27 27 27 27 28 28 28 29 30 31 31 31 30 29 28 28 28 28 29 31 32 33 34 34 34 33 32 31 30 28 27 25 24 23 22 20 19 18 18 17 17 17 15
18 19 18 16 16 15 15 15 14 13 12 11 9 8 7 6 6 5 5 4 4 4 4 5 5 5 6 6 7 9 12 14 15 16 17 19 20 22 23 25 26 26 27 27 27 28 28 28 29 30 30 31 31 31 31 30 30 29 29 29 30 32 33 34 35 35 34 33 32 31 30 28 27 26 24 23 21 20 19 18 18 18 18 17 16
17 18 17 16 15 15 15 14 14 13 12 11 10 9 8 7 6 6 6 6 6 6 6 7 7 7 7 7 7 9 11 14 15 17 18 19 20 22 23 24 25 26 27 27 28 28 29 30 30 31 32 32 32 32 32 32 31 30 30 30 31 32 34 35 35 35 35 34 32 31 30 29 27 26 24 23 22 21 20 19 19 18 18 18 16
16 17 16 16 15 14 14 13 13 12 11 10 9 9 8 7 7 6 6 6 6 6 7 8 8 9 9 9 9 10 11 13 15 17 18 20 22 23 24 24 25 25 26 27 28 28 29 31 32 33 33 33 33 33 33 32 32 31 31 31 31 33 34 35 36 36 36 35 33 32 30 29 27 26 25 24 23 22 21 21 20 20 19 18 17
14 15 16 15 15 14 13 12 11 11 11 10 9 8 7 6 6 6 5 5 5 5 6 7 8 8 9 9 10 10 12 13 14 16 18 20 22 23 24 25 25 26 27 27 28 28 29 30 32 33 34 34 34 33 33 33 32 32 32 32 32 33 34 34 35 36 36 35 34 32 31 29 28 27 26 25 24 23 23 22 21 20 20 19 18
13 13 13 13 13 12 11 11 10 10 9 9 8 8 6 5 5 4 4 4 4 5 6 7 7 8 9 9 10 10 11 12 14 15 17 18 20 21 22 23 25 26 27 28 28 28 29 30 31 32 33 34 34 33 34 33 33 33 33 32 32 33 33 33 34 35 36 35 34 32 31 30 29 28 27 26 25 24 23 22 21 20 20 19 18
12 12 12 11 11 11 10 9 9 8 8 8 7 6 5 4 3 3 2 3 3 4 5 6 7 8 9 10 10 11 12 13 14 15 17 18 19 20 21 22 23 24 25 26 26 27 28 29 30 31 32 32 33 33 34 34 33 33 33 32 32 32 32 32 33 34 35 34 33 32 31 30 28 27 27 26 25 24 23 22 21 20 19 18 18
12 12 11 11 10 10 9 8 7 7 7 6 5 5 4 3 3 2 2 3 3 4 5 6 7 8 9 9 10 11 12 13 15 16 17 18 19 20 20 21 22 23 23 24 25 25 26 27 29 30 31 31 32 33 33 34 34 33 33 32 32 31 31 31 32 34 34 33 32 31 30 28 27 27 27 27 26 25 24 23 21 20 19 19 18
12 11 11 10 9 8 8 7 6 5 5 4 4 3 3 2 1 1 1 2 3 4 5 6 7 8 9 10 11 11 12 13 15 15 16 17 18 19 19 20 21 21 22 23 24 24 25 26 27 28 29 30 31 31 32 33 33 33 33 32 31 30 30 30 31 33 33 33 31 30 29 28 27 27 27 26 25 24 23 22 21 21 20 19 18
10 9 9 8 7 6 6 5 4 3 3 2 2 2 2 1 1 1 2 3 4 5 6 7 8 9 10 11 12 12 13 14 15 16 17 18 18 19 19 20 21 22 22 23 23 24 24 25 26 27 28 28 28 29 30 31 31 31 31 30 30 29 29 29 30 32 33 32 31 30 29 28 28 27 26 26 25 24 23 23 22 21 20 19 18
8 7 6 6 5 5 4 3 3 2 1 1 1 1 1 1 2 3 4 5 6 7 8 9 10 11 12 12 13 14 14 15 16 17 17 18 19 19 20 20 21 22 23 23 24 24 24 25 26 27 27 27 26 26 27 28 29 29 29 28 28 28 27 28 29 31 32 31 30 29 29 28 28 27 26 26 25 24 24 23 22 21 21 20 19
Wind_Direction
226 226 225 224 223 224 225 225 225 225 224 223 224 225 225 224 221 217 215 216 217 216 217 216 212 209 205 200 199 200 200 201 201 201 199 198 201 206 212 217 219 215 209 203 197 192 189 188 188 188 189 190 189 190 190 189 190 187 185 183 178 177 178 183 193 197 198 211 226 246 278 309 331 344 342 341 343 345 347 354 359 358 357 1 2
228 228 227 225 224 224 224 223 223 222 221 221 221 222 223 222 219 216 214 215 216 216 217 216 213 209 205 202 200 199 200 202 203 201 200 200 202 207 214 216 214 208 202 197 193 189 188 188 186 185 187 190 190 189 189 188 188 187 187 185 180 178 182 185 192 204 215 218 234 260 289 322 341 352 345 333 331 336 344 355 357 358 360 1 360
226 227 228 227 226 225 223 222 221 220 219 219 219 220 221 221 218 215 214 215 216 217 219 218 214 209 206 203 201 199 200 200 201 201 202 203 205 210 216 215 210 205 199 195 190 187 187 187 185 185 186 188 189 188 186 188 190 187 187 190 185 179 186 191 192 203 221 234 262 298 328 340 346 351 339 319 318 329 342 353 354 359 2 359 358
224 225 227 229 227 225 223 221 219 219 219 219 218 219 221 220 218 216 215 216 217 218 219 219 215 210 206 203 201 200 200 199 200 201 202 204 207 213 216 213 208 205 200 194 189 187 187 187 186 187 187 188 187 186 186 188 190 188 188 191 190 187 190 194 197 202 214 235 283 327 348 346 341 341 325 304 312 327 342 349 351 360 1 357 359
219 220 223 227 227 226 227 226 225 225 224 223 220 219 221 220 218 217 217 217 218 219 218 216 214 210 206 204 201 200 200 201 202 201 201 204 210 217 217 210 207 205 200 194 190 189 189 188 187 187 189 189 186 186 187 189 190 191 191 192 191 193 192 193 200 201 209 239 291 330 352 343 326 327 313 303 316 330 343 350 354 358 354 355 3
214 218 221 224 226 228 229 230 231 231 231 230 229 227 227 226 222 218 217 217 218 219 217 215 214 211 208 206 204 202 202 202 202 200 200 204 209 214 213 207 205 202 198 194 192 192 191 190 189 190 191 192 189 187 188 190 191 192 193 194 192 192 190 191 196 196 203 232 293 317 330 325 317 319 305 306 320 332 340 348 354 356 352 354 1
214 220 225 228 231 233 233 234 235 235 234 233 231 229 229 229 228 225 221 218 217 216 216 216 215 212 209 207 205 205 204 202 202 202 202 205 207 208 206 202 200 198 195 194 193 192 192 191 191 193 194 195 193 190 189 190 193 193 194 196 193 191 190 190 193 196 201 208 266 291 299 302 308 304 296 309 327 339 342 344 345 350 353 353 357
213 218 224 227 231 234 235 236 236 236 235 233 232 231 230 228 229 227 221 217 216 218 219 219 215 210 208 207 206 207 205 202 202 203 203 206 207 205 202 198 195 192 191 191 191 191 191 191 193 194 195 196 195 193 193 193 193 193 195 197 195 192 191 191 194 196 196 211 240 263 275 284 293 294 302 323 341 346 342 338 337 342 346 350 357
214 217 223 225 226 227 229 232 233 232 233 233 232 232 232 231 231 229 225 220 220 221 221 218 213 208 205 204 204 204 204 204 205 204 204 206 205 203 200 195 191 188 186 187 188 189 190 190 192 194 195 195 194 195 197 199 198 197 196 197 197 194 193 194 198 198 199 212 227 243 261 274 292 307 319 336 340 332 331 333 336 339 339 344 358
216 220 226 229 229 226 225 227 230 230 230 230 229 228 227 227 226 226 225 222 220 218 215 213 210 207 205 205 205 204 204 206 206 205 206 207 205 201 195 191 188 187 186 185 185 187 189 190 192 194 194 195 195 196 198 200 203 203 203 203 201 200 199 198 201 206 208 214 219 231 254 274 298 311 319 325 319 318 327 334 338 340 341 345 353
218 223 225 228 228 226 226 226 227 230 230 230 231 230 228 226 224 223 221 219 218 215 212 210 208 206 205 204 205 204 204 204 203 203 205 207 206 201 193 188 188 189 189 187 186 186 188 190 192 193 194 195 195 197 199 202 204 204 206 206 206 209 211 208 207 212 215 216 217 226 247 270 290 301 307 308 307 315 327 334 337 340 343 344 337
217 224 225 224 224 225 227 227 226 228 229 229 228 228 227 225 223 221 219 218 216 214 212 210 208 207 206 203 202 202 202 202 201 202 202 204 206 202 194 189 188 189 190 189 189 188 188 190 191 192 194 196 197 198 200 203 205 206 207 208 210 214 219 219 219 220 221 221 220 226 244 266 284 294 297 298 303 314 322 330 337 336 335 332 318
215 220 220 219 220 222 224 225 223 224 226 227 225 222 221 220 219 219 218 216 214 212 211 210 208 207 206 205 203 203 203 203 202 203 203 204 204 200 194 191 190 190 190 191 191 191 191 191 190 191 194 196 198 201 202 204 205 205 206 209 213 217 220 225 228 228 231 231 230 231 240 260 276 281 286 291 300 311 320 327 332 326 322 324 319
212 217 217 216 217 219 221 222 221 220 220 220 220 218 217 216 216 216 215 213 211 210 209 209 208 207 206 205 204 204 205 204 202 203 204 202 200 197 193 191 190 191 192 194 195 195 195 194 193 193 194 197 200 202 204 206 206 204 204 207 213 217 220 226 229 231 234 237 240 238 232 249 268 277 285 291 297 308 317 318 318 316 317 320 321
211 213 214 215 216 218 220 221 219 217 216 215 215 215 215 213 212 212 212 212 211 210 210 209 208 208 207 206 205 205 204 203 202 202 201 198 196 195 192 189 189 191 193 195 197 198 198 198 197 197 196 198 201 203 205 207 206 204 204 206 211 215 219 225 230 234 236 237 245 251 246 257 271 278 287 292 296 305 309 304 306 309 311 317 322
209 210 211 214 216 217 219 220 219 217 215 213 213 213 212 212 212 210 209 209 210 210 209 208 207 206 206 205 205 205 203 202 201 201 198 195 193 192 191 189 188 190 192 195 198 200 200 199 198 199 200 201 203 203 206 208 207 206 206 207 212 216 218 224 227 232 237 239 246 254 254 263 274 280 287 292 296 304 303 302 306 306 310 319 325
208 208 210 213 215 217 218 219 218 218 216 215 216 215 214 214 213 212 209 207 206 208 208 208 208 206 204 203 203 203 201 200 201 200 197 195 192 190 189 187 187 190 192 196 199 200 199 199 200 201 201 203 204 203 206 210 209 208 208 209 215 218 219 223 225 228 236 240 244 250 253 261 272 280 286 289 290 295 295 298 305 308 315 326 326
208 208 209 212 214 217 218 219 218 219 220 220 219 219 218 217 216 214 213 209 207 208 208 207 206 205 204 203 203 203 203 201 200 198 196 195 194 192 190 187 187 190 192 194 197 198 198 199 202 203 204 205 205 204 209 213 212 212 212 212 217 219 218 222 225 226 232 238 241 247 253 262 270 276 283 285 283 284 286 292 301 307 314 320 308
207 207 208 210 213 216 218 219 219 221 223 224 225 224 221 219 218 216 214 211 208 207 207 206 205 205 205 205 204 205 204 200 198 197 196 196 196 195 193 189 188 189 190 191 193 195 197 199 201 204 206 206 205 206 213 216 215 217 218 216 219 221 220 224 226 227 230 234 239 246 252 259 267 272 277 280 283 285 286 291 299 305 308 304 299
208 207 207 207 209 212 215 218 220 221 223 223 223 223 220 218 218 215 211 209 208 207 206 205 204 203 203 205 206 208 208 203 199 198 198 198 198 197 195 192 190 189 190 191 191 192 196 199 201 204 205 206 206 209 216 219 219 220 220 220 223 224 223 226 227 226 228 231 235 243 248 254 261 266 270 276 282 288 292 295 302 305 301 295 291
204 204 204 203 205 206 209 215 218 218 220 219 216 216 216 215 214 210 207 206 204 202 201 200 200 201 203 205 207 210 211 207 201 198 198 198 199 200 199 197 196 194 192 193 195 196 197 199 202 203 205 206 207 210 216 221 222 222 222 224 227 227 226 228 227 225 227 229 232 238 241 248 255 260 266 276 283 289 294 296 301 303 296 290 288
198 198 199 198 200 203 206 209 211 210 211 209 205 204 207 209 209 206 205 204 201 198 197 196 196 198 201 205 208 210 212 210 204 199 199 200 201 203 203 202 201 200 196 195 197 200 203 203 203 204 205 206 208 212 216 219 222 222 223 223 225 227 228 226 225 227 228 228 231 235 237 244 253 260 268 277 282 285 291 293 297 301 296 290 287
193 194 194 194 195 199 203 206 208 207 206 204 201 200 202 205 206 206 205 203 198 196 196 195 194 195 198 203 209 212 212 211 207 204 202 201 203 205 206 206 207 206 204 203 204 206 206 206 205 206 206 207 211 212 213 215 219 224 224 220 222 228 228 222 222 226 229 230 232 234 236 243 251 260 268 275 279 281 287 291 293 296 295 291 286
188 190 191 191 192 196 201 206 208 208 207 206 203 202 203 205 205 207 207 204 199 196 196 196 196 196 199 202 205 208 209 209 208 206 204 203 204 205 207 209 210 210 210 212 212 211 209 208 207 207 207 209 212 212 211 211 217 224 224 218 220 227 227 222 223 226 229 232 234 235 237 242 248 256 263 271 276 279 283 287 289 291 292 291 287
182 185 186 188 190 193 198 202 206 207 207 206 205 203 202 201 201 203 204 202 201 198 197 199 199 199 200 202 203 205 207 207 208 207 206 206 205 206 208 210 212 212 212 214 216 215 214 211 209 207 209 210 210 210 209 209 214 221 221 216 222 229 228 224 226 229 231 234 237 238 239 240 244 251 259 266 272 276 278 281 285 292 296 295 293
178 181 184 186 189 193 195 196 200 203 204 206 207 206 205 202 200 201 201 201 202 201 199 200 200 201 203 204 203 204 206 208 209 209 208 207 206 207 209 211 212 214 213 214 216 217 216 214 211 207 206 207 208 209 209 209 212 218 217 218 226 232 229 226 229 232 235 238 240 241 240 239 242 248 255 262 268 272 275 279 285 295 300 300 301
176 178 181 184 187 190 192 191 193 197 199 202 206 207 208 206 203 202 200 199 201 202 202 201 202 204 206 206 206 207 208 209 211 210 209 208 207 208 210 210 211 212 212 212 214 215 214 213 211 205 202 203 208 212 212 211 213 216 217 220 228 233 231 231 235 237 240 243 243 244 243 240 240 244 249 257 264 268 273 280 289 296 301 302 303
175 175 178 182 184 187 190 190 189 191 194 199 203 206 208 208 209 211 211 209 207 207 206 207 209 210 210 208 206 207 209 213 215 214 212 210 209 208 209 210 210 211 211 210 210 209 209 207 203 199 198 201 206 211 213 213 215 218 219 222 229 233 232 233 236 237 238 240 240 241 243 242 241 241 243 251 259 264 268 276 284 291 297 301 300
172 171 174 178 179 181 186 188 189 191 192 196 203 210 214 217 219 223 225 224 223 223 222 222 223 222 219 215 211 208 213 220 222 220 218 215 212 210 210 210 211 212 212 211 206 202 201 199 198 197 197 200 204 209 212 214 215 219 222 225 229 232 232 233 236 238 237 238 237 239 242 243 242 240 240 246 254 258 262 268 275 278 281 286 290
160 162 167 171 171 175 178 181 186 190 192 194 198 206 216 222 226 231 234 233 234 235 236 237 238 235 230 227 225 223 226 230 228 224 222 221 219 216 214 214 214 213 212 210 206 202 200 199 199 200 201 202 206 210 213 214 216 219 223 226 230 232 233 235 238 239 238 238 238 239 241 241 241 240 239 243 246 251 257 263 264 263 266 277 287
152 155 162 165 167 172 175 175 180 187 191 194 197 200 207 214 222 231 238 241 242 241 240 243 247 246 241 238 236 235 237 238 237 231 228 226 224 222 219 218 218 217 214 210 206 205 204 203 204 205 206 207 210 213 215 217 219 222 225 228 231 233 233 235 237 236 236 236 236 237 238 239 240 240 239 241 243 246 253 255 253 252 256 264 274
155 156 162 164 166 172 174 174 177 181 185 191 197 202 206 210 218 228 234 240 246 248 247 247 250 251 250 246 243 241 241 241 241 240 235 231 229 227 224 221 221 220 218 213 211 210 210 209 209 209 210 212 215 218 220 222 223 225 227 230 233 233 234 235 236 234 233 233 233 234 236 237 238 239 238 239 240 243 247 248 246 249 253 254 261
162 162 164 165 166 170 173 176 178 181 185 188 193 200 206 211 221 230 236 239 242 245 247 249 250 252 253 252 251 250 249 248 246 244 242 238 234 231 227 223 222 221 217 214 214 215 215 215 216 216 216 218 220 222 224 226 228 229 231 235 237 237 236 235 234 232 231 232 232 234 236 237 236 237 236 237 239 240 243 245 245 245 247 250 257
164 166 169 169 169 170 174 177 179 182 186 189 192 198 204 211 220 231 240 244 246 248 249 249 250 251 252 253 254 254 254 254 252 249 247 244 239 234 227 221 221 223 221 218 218 219 220 221 222 223 224 225 227 227 228 230 232 234 237 238 240 240 238 234 232 231 230 230 230 231 233 233 233 233 234 235 236 237 239 243 244 242 241 244 252
158 161 165 168 170 171 173 176 179 182 185 188 193 196 200 204 210 219 231 242 251 258 261 261 259 256 255 254 254 254 254 254 254 253 250 247 242 232 219 212 212 217 219 221 224 225 226 227 227 229 229 231 232 232 234 236 238 240 240 239 238 237 235 232 231 230 229 228 228 229 231 231 232 232 232 232 232 234 238 241 242 241 241 243 248
155 155 157 162 167 169 171 173 176 180 183 186 190 195 197 199 202 206 216 229 242 257 269 274 272 268 262 257 253 253 252 252 252 252 250 248 241 227 214 211 213 215 218 222 227 229 231 232 233 235 236 236 237 238 239 242 243 243 242 240 237 235 234 232 231 229 227 227 228 229 229 229 229 229 230 231 231 234 238 241 240 238 238 240 244
157 155 156 159 163 164 165 167 170 174 177 179 182 185 188 194 200 202 207 217 229 242 253 261 263 261 261 258 253 250 249 249 250 250 249 247 240 229 221 220 221 222 224 226 229 231 234 236 237 238 239 240 240 241 243 245 246 246 245 243 240 237 236 234 232 230 228 228 228 227 226 227 229 229 229 230 232 235 237 238 238 238 238 238 241
157 158 158 158 159 161 161 161 164 167 169 171 175 178 179 182 189 194 200 209 221 230 238 245 250 250 253 258 258 252 245 241 240 240 239 235 230 227 226 228 229 230 232 233 233 234 237 240 240 241 242 243 244 245 246 248 249 250 248 245 242 239 237 235 232 230 229 228 227 226 226 228 230 230 229 230 233 235 236 237 235 236 237 235 235
152 154 155 157 158 159 159 159 160 163 164 165 168 172 173 175 180 186 192 200 211 223 234 242 249 254 258 259 258 250 236 227 226 228 229 228 226 227 229 231 233 235 237 238 239 240 241 244 245 246 247 248 249 250 251 251 252 251 249 246 243 239 236 233 231 229 228 227 227 227 228 229 229 229 230 232 234 235 236 236 233 232 235 237 238
151 150 152 155 154 154 154 155 156 158 161 162 165 169 171 172 176 182 188 197 209 222 235 244 253 262 266 263 258 250 238 232 233 234 233 232 232 232 232 234 236 239 241 243 244 246 247 249 251 251 253 253 254 254 255 254 253 253 250 247 244 241 237 234 232 230 230 229 228 226 227 227 227 227 229 232 235 236 236 235 234 232 234 238 242
153 151 153 155 154 153 150 149 151 155 156 157 158 161 164 168 173 179 182 192 209 224 239 250 261 271 275 272 268 260 252 249 248 246 243 242 241 240 239 240 242 244 247 249 250 251 253 255 256 256 257 257 257 257 257 256 254 253 251 249 247 243 239 235 233 232 231 230 227 225 225 226 226 227 228 231 234 235 235 234 234 233 233 235 239
156 155 154 154 155 156 152 150 152 154 153 152 153 154 157 164 174 181 186 193 206 220 233 243 253 264 271 273 271 264 260 259 258 254 252 251 249 248 248 248 248 249 251 253 255 256 257 258 259 260 260 260 260 259 258 256 255 254 253 251 248 244 240 237 235 233 231 229 227 225 225 225 226 227 229 231 232 232 233 233 232 232 232 233 234
156 155 153 153 155 155 153 153 154 154 153 155 156 159 165 171 177 185 193 201 211 223 233 242 248 251 254 258 259 257 255 256 257 256 256 254 253 253 254 255 256 257 258 259 261 262 263 263 263 264 264 264 264 263 261 260 259 257 254 252 250 246 243 240 237 233 230 227 227 226 225 224 225 226 227 228 229 230 231 231 230 231 232 233 232
154 153 153 153 152 152 152 153 154 154 156 159 161 166 174 180 185 195 204 211 222 235 244 250 253 254 253 253 253 252 253 254 256 258 259 258 258 259 259 260 261 262 263 264 265 266 267 267 267 267 267 267 266 265 265 264 262 260 257 255 253 250 247 243 239 237 233 230 228 226 224 222 223 224 225 226 227 227 227 228 229 231 231 230 229
151 151 150 150 149 149 149 150 152 153 154 157 160 164 172 179 185 193 205 217 231 243 252 258 263 264 265 263 260 258 259 260 261 262 263 264 265 265 265 266 266 266 266 267 268 269 270 270 270 270 269 269 268 267 266 266 265 263 262 260 258 256 254 252 248 243 237 232 229 226 224 222 222 223 224 226 226 227 227 228 229 230 230 228 228
143 144 144 143 142 142 141 143 147 148 148 150 151 151 153 161 167 173 189 211 230 243 253 262 269 272 273 274 273 270 270 270 270 270 271 271 272 273 273 272 272 272 271 271 271 271 272 272 272 272 272 271 271 270 269 268 267 266 265 263 262 262 261 259 253 245 239 235 232 229 226 224 223 224 227 227 226 227 228 229 229 230 230 229 229
135 135 134 133 133 133 134 137 139 139 139 142 144 145 150 159 168 179 204 225 242 256 262 268 273 274 275 276 277 277 277 276 275 276 277 277 278 279 280 280 280 280 279 278 276 275 274 274 274 274 274 274 273 272 271 270 269 268 267 266 265 264 262 259 253 246 241 238 235 231 228 226 225 225 227 226 224 224 226 228 228 229 230 229 229
128 126 126 127 127 126 126 127 127 129 131 135 136 139 148 162 176 198 231 253 267 275 280 284 285 285 285 285 284 283 282 281 279 279 280 280 281 282 283 284 284 284 283 282 280 278 276 275 274 274 275 275 274 273 272 271 269 268 267 266 265 264 263 259 252 245 240 236 234 231 229 227 227 227 226 224 223 223 224 224 226 226 227 228 230
123 123 122 122 121 118 117 119 120 124 128 130 132 134 140 156 192 246 286 292 290 291 294 296 296 296 296 296 295 294 292 289 288 288 288 288 288 288 288 288 287 287 286 285 283 282 280 279 277 276 276 276 275 274 272 271 270 269 268 267 266 265 263 259 252 244 237 234 232 229 227 227 228 228 226 225 224 223 222 223 224 224 225 227 230
116 115 114 115 115 113 114 118 124 129 137 146 156 161 168 198 282 315 315 306 303 304 303 300 299 299 297 296 296 296 294 293 294 294 294 294 293 293 293 292 292 291 290 289 287 285 283 281 280 280 279 278 276 274 273 272 271 270 269 268 267 265 262 257 249 241 235 232 230 228 227 227 227 226 225 223 222 221 221 222 222 222 224 226 227
108 108 109 113 117 121 124 127 129 137 156 176 194 221 249 270 281 288 289 289 291 293 293 293 293 293 293 295 296 294 293 293 294 294 294 294 294 293 293 293 293 292 292 291 291 289 287 285 285 284 283 280 278 276 274 273 272 271 271 269 267 264 260 254 245 238 233 231 230 229 229 228 226 224 223 221 220 220 221 221 221 222 224 226 228